| time (UTC) | temp F | wind direction | speed knots | gust knots | rain 1hr in | rain 24hr in | rain mn in | humidity % | barometer mb |
| 20260508060223 | 43 | 33 | 0.0 | 0.9 | 0.00 | 0.02 | 0.00 | 95 | 1013.1 |
| 20260508055504 | 41 | 33 | 0.0 | 0.0 | 0.00 | 0.02 | 0.00 | 94 | 1013.1 |
| 20260508055004 | 41 | 33 | 0.0 | 0.0 | 0.00 | 0.02 | 0.00 | 94 | 1013.1 |
| 20260508054504 | 41 | 33 | 0.0 | 1.7 | 0.00 | 0.02 | 0.00 | 94 | 1013.1 |
| 20260508054000 | 41 | 33 | 0.0 | 1.7 | 0.00 | 0.02 | 0.00 | 94 | 1013.2 |
| 20260508053949 | 41 | 33 | 0.0 | 1.7 | 0.00 | 0.02 | 0.00 | 94 | 1013.1 |
| 20260508052959 | 42 | 33 | 0.0 | 1.7 | 0.00 | 0.02 | 0.00 | 94 | 1013.3 |
| 20260508052504 | 43 | 33 | 0.0 | 1.7 | 0.00 | 0.02 | 0.00 | 94 | 1013.2 |
| 20260508051957 | 44 | 63 | 0.0 | 0.9 | 0.00 | 0.03 | 0.00 | 95 | 1013.3 |
| 20260508051457 | 45 | 70 | 0.0 | 0.0 | 0.00 | 0.03 | 0.00 | 95 | 1013.2 |
| 20260508050957 | 43 | 70 | 0.0 | 1.7 | 0.00 | 0.03 | 0.00 | 95 | 1013.2 |
| 20260508050455 | 42 | 70 | 0.0 | 1.7 | 0.00 | 0.04 | 0.00 | 94 | 1013.1 |
| 20260508045955 | 42 | 70 | 0.0 | 1.7 | 0.00 | 0.04 | 0.00 | 94 | 1013.0 |
| 20260508045455 | 43 | 70 | 0.0 | 1.7 | 0.00 | 0.04 | 0.00 | 94 | 1013.1 |
| 20260508044953 | 44 | 97 | 0.0 | 1.7 | 0.00 | 0.05 | 0.00 | 94 | 1013.0 |
| 20260508044453 | 45 | 97 | 0.9 | 1.7 | 0.00 | 0.05 | 0.00 | 94 | 1012.9 |
| 20260508043957 | 45 | 97 | 0.9 | 1.7 | 0.00 | 0.05 | 0.00 | 94 | 1012.9 |
| 20260508043713 | 44 | 78 | 0.0 | 1.7 | 0.00 | 0.05 | 0.00 | 94 | 1012.9 |
| 20260508042943 | 44 | 20 | 0.0 | 0.9 | 0.00 | 0.05 | 0.00 | 94 | 1012.8 |
| 20260508042441 | 44 | 17 | 0.0 | 0.0 | 0.00 | 0.06 | 0.00 | 94 | 1012.7 |
| 20260508041941 | 45 | 17 | 0.0 | 0.0 | 0.00 | 0.08 | 0.00 | 94 | 1012.7 |
| 20260508041441 | 45 | 17 | 0.0 | 1.7 | 0.00 | 0.10 | 0.00 | 94 | 1012.7 |
| 20260508041419 | 45 | 17 | 0.0 | 1.7 | 0.00 | 0.11 | 0.00 | 94 | 1012.6 |
| 20260508040439 | 44 | 17 | 0.0 | 0.9 | 0.00 | 0.12 | 0.00 | 94 | 1012.6 |
| 20260508035943 | 44 | 9 | 0.0 | 0.0 | 0.00 | 0.15 | 0.15 | 93 | 1012.6 |
| 20260508035438 | 45 | 9 | 0.0 | 1.7 | 0.00 | 0.16 | 0.15 | 94 | 1012.6 |
| 20260508034938 | 45 | 9 | 0.0 | 1.7 | 0.00 | 0.16 | 0.15 | 93 | 1012.5 |
| 20260508034658 | 45 | 9 | 0.9 | 1.7 | 0.00 | 0.16 | 0.15 | 93 | 1012.5 |
| 20260508033936 | 46 | 46 | 0.0 | 1.7 | 0.00 | 0.16 | 0.15 | 93 | 1012.3 |
| 20260508033436 | 46 | 263 | 0.0 | 1.7 | 0.00 | 0.16 | 0.15 | 93 | 1012.3 |
| 20260508032935 | 46 | 263 | 0.0 | 1.7 | 0.00 | 0.16 | 0.15 | 93 | 1012.3 |
| 20260508032434 | 46 | 263 | 0.0 | 1.7 | 0.00 | 0.16 | 0.15 | 93 | 1012.3 |
| 20260508031934 | 46 | 263 | 0.0 | 0.0 | 0.00 | 0.16 | 0.15 | 93 | 1012.3 |
| 20260508031439 | 46 | 263 | 0.0 | 0.9 | 0.00 | 0.16 | 0.15 | 92 | 1012.2 |
| 20260508031157 | 46 | 263 | 0.0 | 0.9 | 0.00 | 0.16 | 0.15 | 92 | 1012.2 |
| 20260508030432 | 47 | 263 | 0.0 | 1.7 | 0.00 | 0.16 | 0.15 | 91 | 1012.2 |
| 20260508025932 | 47 | 263 | 0.0 | 1.7 | 0.00 | 0.16 | 0.15 | 91 | 1012.1 |
| 20260508025426 | 48 | 263 | 0.0 | 1.7 | 0.00 | 0.16 | 0.15 | 90 | 1012.2 |
| 20260508024925 | 49 | 263 | 0.0 | 1.7 | 0.00 | 0.16 | 0.15 | 90 | 1012.1 |
| 20260508024426 | 50 | 263 | 0.0 | 1.7 | 0.00 | 0.16 | 0.15 | 92 | 1012.2 |
| 20260508023920 | 48 | 263 | 0.0 | 1.7 | 0.00 | 0.16 | 0.15 | 92 | 1012.1 |
| 20260508023420 | 48 | 223 | 0.0 | 1.7 | 0.00 | 0.16 | 0.15 | 89 | 1012.2 |
| 20260508022920 | 49 | 163 | 0.0 | 1.7 | 0.00 | 0.16 | 0.15 | 91 | 1012.0 |
| 20260508022418 | 49 | 163 | 0.0 | 1.7 | 0.00 | 0.16 | 0.15 | 91 | 1012.0 |
| 20260508021917 | 49 | 163 | 0.0 | 0.0 | 0.00 | 0.16 | 0.15 | 91 | 1012.1 |
| 20260508021418 | 49 | 163 | 0.0 | 0.0 | 0.00 | 0.16 | 0.15 | 90 | 1012.0 |
| 20260508020916 | 50 | 163 | 0.0 | 0.0 | 0.00 | 0.16 | 0.15 | 89 | 1012.0 |
| 20260508020416 | 50 | 163 | 0.0 | 0.0 | 0.00 | 0.16 | 0.15 | 90 | 1012.0 |
| 20260508015922 | 50 | 163 | 0.0 | 1.7 | 0.00 | 0.16 | 0.15 | 91 | 1012.0 |
| 20260508015413 | 49 | 163 | 0.0 | 1.7 | 0.00 | 0.16 | 0.15 | 91 | 1011.9 |
| 20260508014914 | 49 | 163 | 0.0 | 1.7 | 0.00 | 0.16 | 0.15 | 89 | 1011.9 |
| 20260508014414 | 50 | 163 | 0.0 | 1.7 | 0.00 | 0.16 | 0.15 | 89 | 1011.8 |
| 20260508013911 | 50 | 163 | 0.0 | 1.7 | 0.00 | 0.16 | 0.15 | 91 | 1011.7 |
| 20260508013412 | 50 | 163 | 0.0 | 0.9 | 0.00 | 0.16 | 0.15 | 90 | 1011.6 |
| 20260508012911 | 50 | 163 | 0.0 | 0.9 | 0.00 | 0.16 | 0.15 | 89 | 1011.6 |
| 20260508012409 | 51 | 163 | 0.0 | 1.7 | 0.00 | 0.16 | 0.15 | 86 | 1011.6 |
| 20260508011910 | 52 | 161 | 0.0 | 1.7 | 0.00 | 0.16 | 0.15 | 83 | 1011.5 |
| 20260508011415 | 53 | 161 | 0.0 | 1.7 | 0.00 | 0.16 | 0.15 | 83 | 1011.5 |
| 20260508010910 | 53 | 161 | 0.0 | 2.6 | 0.00 | 0.16 | 0.15 | 83 | 1011.5 |
| 20260508010406 | 53 | 144 | 0.9 | 2.6 | 0.00 | 0.16 | 0.15 | 83 | 1011.5 |
| 20260508010135 | 53 | 0 | 0.9 | 2.6 | 0.00 | 0.16 | 0.15 | 83 | 1011.5 |
| 20260508005406 | 53 | 211 | 0.9 | 2.6 | 0.00 | 0.16 | 0.15 | 83 | 1011.4 |
| 20260508004905 | 53 | 189 | 0.9 | 2.6 | 0.00 | 0.16 | 0.15 | 83 | 1011.3 |
| 20260508004405 | 53 | 144 | 0.9 | 3.5 | 0.00 | 0.16 | 0.15 | 81 | 1011.2 |
| 20260508003908 | 53 | 114 | 0.9 | 3.5 | 0.00 | 0.16 | 0.15 | 81 | 1011.2 |
| 20260508003400 | 53 | 182 | 0.9 | 2.6 | 0.00 | 0.16 | 0.15 | 82 | 1011.1 |
| 20260508002858 | 53 | 194 | 0.9 | 2.6 | 0.00 | 0.16 | 0.15 | 81 | 1011.1 |
| 20260508002358 | 54 | 173 | 0.9 | 2.6 | 0.00 | 0.16 | 0.15 | 80 | 1011.0 |
| 20260508001858 | 54 | 151 | 0.9 | 1.7 | 0.00 | 0.16 | 0.15 | 79 | 1011.0 |
| 20260508001356 | 54 | 162 | 0.9 | 3.5 | 0.00 | 0.16 | 0.15 | 79 | 1011.0 |
| 20260508000850 | 54 | 154 | 0.9 | 3.5 | 0.00 | 0.16 | 0.15 | 79 | 1010.9 |
| 20260508000350 | 54 | 162 | 0.9 | 2.6 | 0.00 | 0.16 | 0.15 | 79 | 1010.6 |
| 20260507235850 | 54 | 201 | 0.9 | 4.3 | 0.00 | 0.16 | 0.15 | 78 | 1010.6 |
| 20260507235350 | 55 | 200 | 0.9 | 4.3 | 0.00 | 0.16 | 0.15 | 77 | 1010.6 |
| 20260507234850 | 55 | 180 | 0.9 | 4.3 | 0.00 | 0.16 | 0.15 | 76 | 1010.5 |
| 20260507234349 | 55 | 192 | 1.7 | 4.3 | 0.00 | 0.16 | 0.15 | 76 | 1010.4 |
| 20260507234113 | 56 | 173 | 1.7 | 5.2 | 0.00 | 0.16 | 0.15 | 75 | 1010.4 |
| 20260507233611 | 56 | 189 | 2.6 | 5.2 | 0.00 | 0.16 | 0.15 | 74 | 1010.4 |
| 20260507232850 | 56 | 205 | 2.6 | 4.3 | 0.00 | 0.16 | 0.15 | 74 | 1010.4 |
| 20260507232349 | 57 | 244 | 1.7 | 5.2 | 0.00 | 0.16 | 0.15 | 73 | 1010.3 |
| 20260507231849 | 57 | 230 | 1.7 | 5.2 | 0.00 | 0.16 | 0.15 | 73 | 1010.2 |
| 20260507231349 | 57 | 247 | 2.6 | 5.2 | 0.00 | 0.16 | 0.15 | 72 | 1010.2 |
| 20260507230849 | 57 | 199 | 2.6 | 5.2 | 0.00 | 0.16 | 0.15 | 71 | 1010.1 |
| 20260507230349 | 57 | 195 | 2.6 | 4.3 | 0.00 | 0.16 | 0.15 | 70 | 1010.0 |
| 20260507230110 | 57 | 246 | 2.6 | 4.3 | 0.00 | 0.16 | 0.15 | 68 | 1009.9 |
| 20260507225345 | 57 | 199 | 2.6 | 6.1 | 0.00 | 0.16 | 0.15 | 69 | 1009.9 |
| 20260507224845 | 57 | 238 | 2.6 | 6.1 | 0.00 | 0.16 | 0.15 | 68 | 1009.9 |
| 20260507224343 | 57 | 171 | 2.6 | 6.1 | 0.00 | 0.16 | 0.15 | 67 | 1009.9 |
| 20260507223843 | 58 | 151 | 3.5 | 7.0 | 0.00 | 0.16 | 0.15 | 66 | 1009.8 |
| 20260507223337 | 58 | 200 | 3.5 | 7.0 | 0.00 | 0.16 | 0.15 | 68 | 1009.8 |
| 20260507222840 | 58 | 259 | 3.5 | 7.8 | 0.00 | 0.16 | 0.15 | 66 | 1009.8 |
| 20260507222336 | 58 | 208 | 2.6 | 7.8 | 0.00 | 0.16 | 0.15 | 65 | 1009.7 |
| 20260507222057 | 58 | 240 | 2.6 | 6.1 | 0.00 | 0.16 | 0.15 | 67 | 1009.7 |
| 20260507221334 | 58 | 157 | 3.5 | 7.8 | 0.00 | 0.16 | 0.15 | 65 | 1009.7 |
| 20260507220831 | 58 | 206 | 4.3 | 8.7 | 0.00 | 0.16 | 0.15 | 65 | 1009.7 |
| 20260507220325 | 58 | 157 | 3.5 | 8.7 | 0.00 | 0.16 | 0.15 | 67 | 1009.7 |
| 20260507215829 | 58 | 185 | 3.5 | 7.8 | 0.00 | 0.16 | 0.15 | 64 | 1009.8 |
| 20260507215543 | 58 | 150 | 3.5 | 7.8 | 0.00 | 0.16 | 0.15 | 66 | 1009.7 |
| 20260507214823 | 58 | 273 | 4.3 | 7.8 | 0.00 | 0.16 | 0.15 | 64 | 1009.7 |
| 20260507214547 | 58 | 190 | 4.3 | 7.8 | 0.00 | 0.16 | 0.15 | 65 | 1009.6 |
| 20260507213821 | 58 | 217 | 3.5 | 7.8 | 0.00 | 0.16 | 0.15 | 67 | 1009.7 |
| 20260507213321 | 58 | 115 | 3.5 | 8.7 | 0.00 | 0.16 | 0.15 | 67 | 1009.7 |
| 20260507212821 | 58 | 131 | 3.5 | 8.7 | 0.00 | 0.16 | 0.15 | 65 | 1009.6 |
| 20260507212318 | 58 | 195 | 4.3 | 8.7 | 0.00 | 0.16 | 0.15 | 69 | 1009.6 |
| 20260507211813 | 58 | 211 | 5.2 | 8.7 | 0.00 | 0.16 | 0.15 | 67 | 1009.7 |
| 20260507211313 | 58 | 169 | 6.1 | 10.4 | 0.00 | 0.16 | 0.15 | 65 | 1009.8 |
| 20260507210814 | 58 | 126 | 5.2 | 10.4 | 0.00 | 0.16 | 0.15 | 67 | 1009.7 |
| 20260507210313 | 59 | 136 | 3.5 | 9.6 | 0.00 | 0.16 | 0.15 | 65 | 1009.7 |
| 20260507205814 | 60 | 221 | 2.6 | 7.8 | 0.00 | 0.16 | 0.15 | 66 | 1009.5 |
| 20260507205546 | 59 | 170 | 3.5 | 8.7 | 0.00 | 0.16 | 0.15 | 66 | 1009.6 |
| 20260507204811 | 59 | 149 | 3.5 | 8.7 | 0.00 | 0.16 | 0.15 | 65 | 1009.5 |
| 20260507204312 | 60 | 191 | 2.6 | 9.6 | 0.00 | 0.16 | 0.15 | 68 | 1009.7 |
| 20260507203811 | 59 | 219 | 3.5 | 9.6 | 0.00 | 0.16 | 0.15 | 68 | 1009.7 |
| 20260507203529 | 58 | 113 | 4.3 | 9.6 | 0.00 | 0.16 | 0.15 | 68 | 1009.7 |
| 20260507202811 | 58 | 133 | 3.5 | 9.6 | 0.00 | 0.16 | 0.15 | 63 | 1009.8 |
| 20260507202800 | 58 | 126 | 3.5 | 8.7 | 0.00 | 0.16 | 0.15 | 64 | 1009.8 |
| 20260507201809 | 58 | 98 | 4.3 | 8.7 | 0.00 | 0.16 | 0.15 | 64 | 1009.9 |
| 20260507201309 | 58 | 129 | 4.3 | 8.7 | 0.00 | 0.16 | 0.15 | 67 | 1009.9 |
| 20260507200808 | 57 | 159 | 3.5 | 7.0 | 0.00 | 0.16 | 0.15 | 64 | 1009.9 |
| 20260507200307 | 57 | 138 | 3.5 | 7.0 | 0.00 | 0.16 | 0.15 | 63 | 1009.9 |
| 20260507195807 | 58 | 120 | 2.6 | 6.1 | 0.00 | 0.16 | 0.15 | 64 | 1010.0 |
| 20260507195306 | 58 | 133 | 2.6 | 6.1 | 0.00 | 0.16 | 0.15 | 62 | 1010.0 |
| 20260507194805 | 57 | 130 | 2.6 | 6.1 | 0.00 | 0.16 | 0.15 | 60 | 1010.0 |
| 20260507194306 | 58 | 158 | 1.7 | 7.0 | 0.01 | 0.16 | 0.15 | 62 | 1009.9 |
| 20260507193809 | 58 | 194 | 2.6 | 7.0 | 0.01 | 0.16 | 0.15 | 63 | 1010.0 |
| 20260507193303 | 58 | 205 | 2.6 | 7.0 | 0.01 | 0.16 | 0.15 | 62 | 1010.2 |
| 20260507192803 | 58 | 209 | 3.5 | 7.0 | 0.01 | 0.16 | 0.15 | 65 | 1010.5 |
| 20260507192306 | 57 | 186 | 3.5 | 7.0 | 0.01 | 0.16 | 0.15 | 64 | 1010.6 |
| 20260507191801 | 57 | 178 | 3.5 | 7.0 | 0.01 | 0.16 | 0.15 | 64 | 1010.6 |
| 20260507191302 | 56 | 171 | 3.5 | 7.0 | 0.01 | 0.16 | 0.15 | 64 | 1010.4 |
| 20260507190800 | 57 | 113 | 1.7 | 6.1 | 0.01 | 0.16 | 0.15 | 65 | 1010.3 |
| 20260507190259 | 57 | 92 | 1.7 | 6.1 | 0.01 | 0.16 | 0.15 | 64 | 1010.3 |
| 20260507185800 | 57 | 107 | 2.6 | 6.1 | 0.01 | 0.16 | 0.15 | 68 | 1010.3 |
| 20260507185305 | 57 | 74 | 1.7 | 6.1 | 0.01 | 0.16 | 0.15 | 67 | 1010.5 |
| 20260507184757 | 56 | 119 | 1.7 | 5.2 | 0.01 | 0.16 | 0.15 | 66 | 1010.6 |
| 20260507184257 | 56 | 100 | 2.6 | 6.1 | 0.00 | 0.15 | 0.14 | 63 | 1010.4 |
| 20260507183757 | 56 | 81 | 2.6 | 6.1 | 0.00 | 0.15 | 0.14 | 63 | 1010.9 |
| 20260507183254 | 56 | 108 | 2.6 | 6.1 | 0.00 | 0.15 | 0.14 | 65 | 1011.1 |
| 20260507182755 | 56 | 179 | 2.6 | 6.1 | 0.00 | 0.15 | 0.14 | 61 | 1011.0 |
| 20260507182255 | 56 | 121 | 1.7 | 5.2 | 0.00 | 0.15 | 0.14 | 63 | 1011.1 |
| 20260507182012 | 57 | 116 | 1.7 | 5.2 | 0.00 | 0.15 | 0.14 | 67 | 1011.2 |
| 20260507181253 | 56 | 91 | 1.7 | 5.2 | 0.00 | 0.15 | 0.14 | 70 | 1010.8 |
| 20260507181023 | 56 | 144 | 1.7 | 3.5 | 0.00 | 0.15 | 0.14 | 65 | 1011.3 |
| 20260507180251 | 56 | 74 | 2.6 | 7.0 | 0.00 | 0.15 | 0.14 | 65 | 1011.3 |
| 20260507180022 | 56 | 132 | 1.7 | 7.0 | 0.00 | 0.15 | 0.14 | 62 | 1011.5 |
| 20260507175250 | 57 | 114 | 1.7 | 7.0 | 0.00 | 0.15 | 0.14 | 65 | 1011.2 |
| 20260507174748 | 57 | 116 | 1.7 | 7.0 | 0.00 | 0.15 | 0.14 | 62 | 1011.2 |
| 20260507174514 | 56 | 91 | 0.9 | 2.6 | 0.00 | 0.15 | 0.14 | 67 | 1011.3 |
| 20260507173748 | 56 | 78 | 0.9 | 2.6 | 0.00 | 0.15 | 0.14 | 66 | 1011.5 |
| 20260507173509 | 56 | 355 | 0.9 | 2.6 | 0.00 | 0.15 | 0.14 | 64 | 1011.5 |
| 20260507173229 | 56 | 28 | 0.9 | 2.6 | 0.00 | 0.15 | 0.14 | 62 | 1011.6 |
| 20260507172251 | 58 | 67 | 0.9 | 4.3 | 0.00 | 0.15 | 0.14 | 65 | 1011.6 |
| 20260507171745 | 57 | 5 | 0.9 | 4.3 | 0.00 | 0.15 | 0.14 | 67 | 1011.4 |
| 20260507171517 | 56 | 71 | 1.7 | 4.3 | 0.00 | 0.15 | 0.14 | 63 | 1011.8 |
| 20260507170744 | 56 | 45 | 0.9 | 4.3 | 0.00 | 0.15 | 0.14 | 61 | 1011.8 |
| 20260507170241 | 56 | 105 | 0.9 | 3.5 | 0.00 | 0.15 | 0.14 | 63 | 1011.8 |
| 20260507165741 | 56 | 21 | 0.9 | 6.1 | 0.00 | 0.15 | 0.14 | 68 | 1011.9 |
| 20260507165241 | 56 | 61 | 0.9 | 6.1 | 0.00 | 0.15 | 0.14 | 64 | 1011.8 |
| 20260507164959 | 56 | 28 | 0.9 | 6.1 | 0.00 | 0.15 | 0.14 | 70 | 1012.0 |
| 20260507164239 | 55 | 355 | 0.9 | 6.1 | 0.00 | 0.15 | 0.14 | 69 | 1012.1 |
| 20260507164231 | 55 | 112 | 0.9 | 2.6 | 0.00 | 0.15 | 0.14 | 74 | 1012.2 |
| 20260507163459 | 55 | 0 | 0.0 | 1.7 | 0.00 | 0.15 | 0.14 | 77 | 1012.4 |
| 20260507162736 | 54 | 139 | 0.0 | 1.7 | 0.00 | 0.15 | 0.14 | 78 | 1012.6 |
| 20260507162236 | 54 | 139 | 0.9 | 1.7 | 0.00 | 0.15 | 0.14 | 77 | 1012.7 |
| 20260507161733 | 53 | 125 | 0.9 | 1.7 | 0.00 | 0.15 | 0.14 | 79 | 1012.7 |
| 20260507161233 | 53 | 169 | 0.9 | 1.7 | 0.00 | 0.15 | 0.14 | 79 | 1012.9 |
| 20260507160739 | 53 | 111 | 0.9 | 1.7 | 0.00 | 0.15 | 0.14 | 77 | 1012.8 |
| 20260507160231 | 53 | 107 | 0.9 | 1.7 | 0.00 | 0.15 | 0.14 | 79 | 1012.7 |
| 20260507155731 | 54 | 126 | 0.0 | 1.7 | 0.00 | 0.15 | 0.14 | 81 | 1012.6 |
| 20260507155456 | 53 | 85 | 0.0 | 1.7 | 0.00 | 0.15 | 0.14 | 79 | 1012.5 |
| 20260507154731 | 53 | 75 | 0.0 | 1.7 | 0.00 | 0.15 | 0.14 | 78 | 1012.5 |
| 20260507154451 | 54 | 53 | 0.0 | 1.7 | 0.00 | 0.15 | 0.14 | 80 | 1012.5 |
| 20260507153731 | 53 | 59 | 0.0 | 1.7 | 0.00 | 0.15 | 0.14 | 79 | 1012.7 |
| 20260507153225 | 53 | 57 | 0.0 | 1.7 | 0.00 | 0.15 | 0.14 | 77 | 1012.8 |
| 20260507152725 | 54 | 53 | 0.0 | 1.7 | 0.00 | 0.15 | 0.14 | 78 | 1012.6 |
| 20260507152224 | 54 | 59 | 0.0 | 1.7 | 0.00 | 0.15 | 0.14 | 77 | 1012.6 |
| 20260507151730 | 54 | 59 | 0.0 | 1.7 | 0.00 | 0.15 | 0.14 | 78 | 1012.6 |
| 20260507151220 | 53 | 55 | 0.0 | 1.7 | 0.00 | 0.15 | 0.14 | 77 | 1012.8 |
| 20260507150949 | 53 | 44 | 0.0 | 1.7 | 0.00 | 0.15 | 0.14 | 72 | 1012.8 |
| 20260507150220 | 54 | 17 | 0.0 | 1.7 | 0.00 | 0.15 | 0.14 | 72 | 1012.9 |
| 20260507145721 | 54 | 56 | 0.0 | 1.7 | 0.00 | 0.15 | 0.14 | 75 | 1012.6 |
| 20260507145221 | 54 | 13 | 0.0 | 3.5 | 0.00 | 0.15 | 0.14 | 73 | 1012.8 |
| 20260507144719 | 54 | 13 | 0.9 | 2.6 | 0.00 | 0.15 | 0.14 | 72 | 1012.8 |
| 20260507144438 | 54 | 23 | 0.9 | 3.5 | 0.00 | 0.15 | 0.14 | 71 | 1012.9 |
| 20260507143719 | 54 | 19 | 0.9 | 2.6 | 0.00 | 0.15 | 0.14 | 73 | 1012.9 |
| 20260507143219 | 54 | 60 | 0.9 | 2.6 | 0.00 | 0.15 | 0.14 | 74 | 1013.0 |
| 20260507142938 | 54 | 30 | 0.9 | 2.6 | 0.00 | 0.16 | 0.14 | 73 | 1013.3 |
| 20260507142438 | 54 | 51 | 0.0 | 2.6 | 0.00 | 0.16 | 0.14 | 74 | 1013.3 |
| 20260507141718 | 54 | 11 | 0.0 | 2.6 | 0.00 | 0.16 | 0.14 | 74 | 1013.3 |
| 20260507141440 | 54 | 19 | 0.0 | 2.6 | 0.00 | 0.16 | 0.14 | 79 | 1013.5 |
| 20260507140719 | 54 | 19 | 0.0 | 2.6 | 0.00 | 0.17 | 0.14 | 75 | 1013.4 |
| 20260507140218 | 54 | 15 | 0.0 | 2.6 | 0.00 | 0.17 | 0.14 | 77 | 1013.3 |
| 20260507135719 | 54 | 22 | 0.9 | 2.6 | 0.00 | 0.19 | 0.14 | 77 | 1013.3 |
| 20260507135220 | 54 | 36 | 0.9 | 2.6 | 0.00 | 0.20 | 0.14 | 76 | 1013.3 |
| 20260507134720 | 54 | 29 | 0.0 | 1.7 | 0.00 | 0.21 | 0.14 | 76 | 1013.3 |
| 20260507134219 | 54 | 5 | 0.0 | 5.2 | 0.00 | 0.21 | 0.14 | 78 | 1013.4 |
| 20260507133719 | 55 | 29 | 0.9 | 5.2 | 0.00 | 0.21 | 0.14 | 77 | 1013.4 |
| 20260507133218 | 55 | 5 | 0.9 | 5.2 | 0.00 | 0.21 | 0.14 | 77 | 1013.3 |
| 20260507132717 | 55 | 325 | 0.9 | 5.2 | 0.00 | 0.21 | 0.14 | 78 | 1013.2 |
| 20260507132215 | 55 | 0 | 0.9 | 4.3 | 0.00 | 0.21 | 0.14 | 77 | 1013.2 |
| 20260507131715 | 55 | 350 | 0.9 | 4.3 | 0.00 | 0.21 | 0.14 | 80 | 1013.3 |
| 20260507131214 | 55 | 355 | 0.9 | 5.2 | 0.00 | 0.22 | 0.14 | 81 | 1013.1 |
| 20260507130713 | 55 | 40 | 0.9 | 5.2 | 0.00 | 0.22 | 0.14 | 82 | 1013.2 |
| 20260507130211 | 55 | 351 | 0.9 | 5.2 | 0.00 | 0.23 | 0.14 | 82 | 1013.0 |
| 20260507125706 | 55 | 35 | 0.9 | 5.2 | 0.00 | 0.24 | 0.14 | 81 | 1013.0 |
| 20260507125431 | 55 | 350 | 0.9 | 2.6 | 0.00 | 0.25 | 0.14 | 84 | 1013.0 |
| 20260507124700 | 55 | 16 | 0.9 | 3.5 | 0.00 | 0.25 | 0.14 | 83 | 1013.0 |
| 20260507124159 | 55 | 343 | 0.9 | 3.5 | 0.00 | 0.26 | 0.14 | 82 | 1013.2 |
| 20260507123700 | 55 | 9 | 0.9 | 4.3 | 0.00 | 0.26 | 0.14 | 82 | 1013.2 |
| 20260507123415 | 55 | 13 | 0.9 | 4.3 | 0.00 | 0.27 | 0.14 | 82 | 1013.1 |
| 20260507122654 | 55 | 355 | 0.9 | 4.3 | 0.00 | 0.27 | 0.14 | 82 | 1013.0 |
| 20260507122154 | 55 | 38 | 0.9 | 4.3 | 0.00 | 0.28 | 0.14 | 83 | 1012.8 |
| 20260507121653 | 55 | 69 | 0.9 | 3.5 | 0.00 | 0.28 | 0.14 | 82 | 1012.9 |
| 20260507121152 | 55 | 26 | 0.9 | 3.5 | 0.00 | 0.28 | 0.14 | 82 | 1012.8 |
| 20260507120651 | 55 | 37 | 0.9 | 3.5 | 0.00 | 0.28 | 0.14 | 82 | 1012.7 |
| 20260507120148 | 55 | 346 | 0.9 | 3.5 | 0.00 | 0.28 | 0.14 | 82 | 1012.6 |
| 20260507115649 | 55 | 16 | 0.9 | 3.5 | 0.00 | 0.28 | 0.14 | 83 | 1012.4 |
| 20260507115405 | 55 | 11 | 0.9 | 3.5 | 0.00 | 0.28 | 0.14 | 84 | 1012.2 |
| 20260507114651 | 55 | 0 | 0.9 | 3.5 | 0.00 | 0.28 | 0.14 | 85 | 1012.5 |
| 20260507114142 | 54 | 355 | 0.9 | 2.6 | 0.00 | 0.28 | 0.14 | 85 | 1012.6 |
| 20260507113642 | 54 | 325 | 0.0 | 3.5 | 0.00 | 0.28 | 0.14 | 86 | 1012.6 |
| 20260507113146 | 54 | 321 | 0.0 | 3.5 | 0.00 | 0.28 | 0.14 | 86 | 1012.4 |
| 20260507112641 | 54 | 355 | 0.9 | 3.5 | 0.00 | 0.28 | 0.14 | 86 | 1012.4 |
| 20260507112407 | 53 | 342 | 0.9 | 3.5 | 0.00 | 0.28 | 0.14 | 85 | 1012.5 |
| 20260507111640 | 53 | 42 | 0.0 | 2.6 | 0.00 | 0.28 | 0.14 | 86 | 1012.2 |
| 20260507111138 | 53 | 5 | 0.0 | 1.7 | 0.00 | 0.28 | 0.14 | 86 | 1012.0 |
| 20260507110857 | 53 | 355 | 0.0 | 1.7 | 0.00 | 0.28 | 0.14 | 86 | 1011.9 |
| 20260507110137 | 53 | 36 | 0.0 | 2.6 | 0.00 | 0.28 | 0.14 | 87 | 1012.0 |
| 20260507105636 | 53 | 319 | 0.0 | 2.6 | 0.00 | 0.28 | 0.14 | 87 | 1012.1 |
| 20260507105137 | 53 | 5 | 0.9 | 2.6 | 0.00 | 0.28 | 0.14 | 87 | 1012.4 |
| 20260507104640 | 53 | 346 | 0.9 | 2.6 | 0.00 | 0.28 | 0.14 | 87 | 1012.6 |
| 20260507104351 | 53 | 15 | 0.0 | 1.7 | 0.00 | 0.28 | 0.14 | 87 | 1012.4 |
| 20260507103634 | 53 | 305 | 0.0 | 1.7 | 0.00 | 0.28 | 0.14 | 87 | 1012.3 |
| 20260507103133 | 53 | 310 | 0.0 | 2.6 | 0.00 | 0.28 | 0.14 | 88 | 1012.2 |
| 20260507102628 | 53 | 43 | 0.0 | 2.6 | 0.00 | 0.28 | 0.14 | 88 | 1011.9 |
| 20260507102346 | 53 | 355 | 0.0 | 1.7 | 0.00 | 0.28 | 0.14 | 88 | 1011.9 |
| 20260507101628 | 53 | 94 | 0.0 | 1.7 | 0.00 | 0.28 | 0.14 | 88 | 1012.2 |
| 20260507101126 | 53 | 96 | 0.0 | 1.7 | 0.00 | 0.28 | 0.14 | 88 | 1012.0 |
| 20260507100626 | 53 | 36 | 0.0 | 1.7 | 0.00 | 0.28 | 0.14 | 88 | 1012.0 |
| 20260507100126 | 53 | 20 | 0.0 | 1.7 | 0.00 | 0.28 | 0.14 | 88 | 1011.8 |
| 20260507095624 | 53 | 70 | 0.0 | 1.7 | 0.00 | 0.28 | 0.14 | 88 | 1011.8 |
| 20260507095124 | 53 | 51 | 0.0 | 1.7 | 0.00 | 0.28 | 0.14 | 89 | 1011.8 |
| 20260507095113 | 54 | 55 | 0.0 | 1.7 | 0.00 | 0.28 | 0.14 | 89 | 1011.9 |
| 20260507094122 | 54 | 84 | 0.0 | 1.7 | 0.00 | 0.28 | 0.14 | 89 | 1011.9 |
| 20260507093622 | 54 | 13 | 0.0 | 0.9 | 0.00 | 0.28 | 0.14 | 90 | 1012.2 |
| 20260507093121 | 54 | 22 | 0.0 | 2.6 | 0.00 | 0.28 | 0.14 | 89 | 1012.0 |
| 20260507092620 | 54 | 22 | 0.0 | 2.6 | 0.00 | 0.28 | 0.14 | 89 | 1012.0 |
| 20260507092120 | 54 | 355 | 0.0 | 2.6 | 0.00 | 0.28 | 0.14 | 89 | 1012.0 |
| 20260507091619 | 54 | 5 | 0.9 | 2.6 | 0.00 | 0.28 | 0.14 | 89 | 1011.9 |
| 20260507091118 | 54 | 37 | 0.0 | 2.6 | 0.00 | 0.28 | 0.14 | 90 | 1011.7 |
| 20260507090618 | 54 | 80 | 0.0 | 2.6 | 0.00 | 0.28 | 0.14 | 90 | 1011.7 |
| 20260507090122 | 54 | 83 | 0.0 | 2.6 | 0.00 | 0.28 | 0.14 | 90 | 1011.7 |
| 20260507085616 | 54 | 73 | 0.0 | 2.6 | 0.00 | 0.28 | 0.14 | 90 | 1011.5 |
| 20260507085116 | 54 | 40 | 0.0 | 2.6 | 0.00 | 0.28 | 0.14 | 90 | 1011.6 |
| 20260507084615 | 54 | 9 | 0.0 | 1.7 | 0.00 | 0.28 | 0.14 | 90 | 1011.5 |
| 20260507084110 | 54 | 16 | 0.0 | 1.7 | 0.00 | 0.28 | 0.14 | 90 | 1011.5 |
| 20260507083831 | 54 | 16 | 0.0 | 2.6 | 0.00 | 0.28 | 0.14 | 90 | 1011.5 |
| 20260507083109 | 54 | 34 | 0.0 | 2.6 | 0.00 | 0.28 | 0.14 | 90 | 1011.5 |
| 20260507082608 | 54 | 63 | 0.0 | 1.7 | 0.00 | 0.28 | 0.14 | 90 | 1011.7 |
| 20260507082108 | 54 | 15 | 0.0 | 1.7 | 0.00 | 0.28 | 0.14 | 90 | 1011.5 |
| 20260507081607 | 55 | 38 | 0.0 | 1.7 | 0.00 | 0.28 | 0.14 | 90 | 1011.6 |
| 20260507081104 | 55 | 347 | 0.0 | 1.7 | 0.00 | 0.28 | 0.14 | 90 | 1011.6 |
| 20260507080604 | 55 | 82 | 0.9 | 4.3 | 0.00 | 0.28 | 0.14 | 90 | 1011.5 |
| 20260507080103 | 55 | 17 | 0.9 | 4.3 | 0.01 | 0.28 | 0.14 | 90 | 1011.7 |
| 20260507075607 | 55 | 306 | 0.9 | 4.3 | 0.01 | 0.28 | 0.14 | 90 | 1011.7 |
| 20260507075101 | 55 | 316 | 0.9 | 4.3 | 0.01 | 0.28 | 0.14 | 90 | 1011.4 |
| 20260507074613 | 55 | 12 | 0.9 | 3.5 | 0.01 | 0.28 | 0.14 | 91 | 1011.1 |
| 20260507074100 | 55 | 9 | 0.9 | 5.2 | 0.01 | 0.28 | 0.14 | 91 | 1010.9 |
| 20260507073600 | 55 | 304 | 0.9 | 5.2 | 0.01 | 0.28 | 0.14 | 91 | 1011.3 |
| 20260507073059 | 55 | 336 | 1.7 | 5.2 | 0.01 | 0.28 | 0.14 | 90 | 1011.0 |
| 20260507072556 | 55 | 351 | 0.9 | 5.2 | 0.01 | 0.28 | 0.14 | 90 | 1011.1 |
| 20260507072315 | 56 | 324 | 0.9 | 5.2 | 0.01 | 0.28 | 0.14 | 90 | 1011.1 |
| 20260507071559 | 56 | 51 | 0.9 | 3.5 | 0.01 | 0.28 | 0.14 | 90 | 1010.5 |
| 20260507071054 | 56 | 84 | 0.9 | 3.5 | 0.01 | 0.28 | 0.14 | 91 | 1010.8 |
| 20260507070604 | 56 | 41 | 0.9 | 3.5 | 0.01 | 0.28 | 0.14 | 91 | 1010.8 |
| 20260507070310 | 56 | 17 | 0.9 | 4.3 | 0.00 | 0.27 | 0.13 | 91 | 1011.0 |
| 20260507065548 | 57 | 350 | 1.7 | 4.3 | 0.00 | 0.27 | 0.13 | 91 | 1011.0 |
| 20260507065058 | 57 | 9 | 1.7 | 5.2 | 0.00 | 0.27 | 0.13 | 91 | 1010.9 |
| 20260507064546 | 57 | 299 | 1.7 | 5.2 | 0.00 | 0.27 | 0.13 | 91 | 1011.0 |
| 20260507064046 | 57 | 25 | 1.7 | 9.6 | 0.00 | 0.27 | 0.13 | 91 | 1011.0 |
| 20260507063552 | 57 | 28 | 1.7 | 9.6 | 0.00 | 0.27 | 0.13 | 91 | 1011.0 |
| 20260507063046 | 58 | 59 | 1.7 | 8.7 | 0.00 | 0.27 | 0.13 | 92 | 1011.0 |
| 20260507062546 | 58 | 15 | 1.7 | 4.3 | 0.00 | 0.27 | 0.13 | 92 | 1011.0 |
| 20260507062046 | 58 | 319 | 1.7 | 7.0 | 0.01 | 0.27 | 0.13 | 92 | 1011.0 |
| 20260507061545 | 58 | 62 | 0.9 | 7.0 | 0.01 | 0.27 | 0.13 | 92 | 1010.8 |
| 20260507061044 | 58 | 304 | 1.7 | 7.0 | 0.01 | 0.27 | 0.13 | 93 | 1011.2 |
| 20260507060544 | 58 | 343 | 2.6 | 7.0 | 0.02 | 0.27 | 0.13 | 93 | 1011.1 |